Regional Weather Roundup
Issued by NWS

Home | Current Version | Previous Version | Text Only | Print | Product List | Glossary On
Versions: 1 2 3 4 5 6 7 8 9 10 11 12 13 14 15 16 17 18 19 20 21 22 23 24 25 26 27 28 29 30 31 32 33 34 35 36 37 38 39 40 41 42 43 44 45 46 47 48 49 50
000
ASUS43 KLMK 231710
RWRKY
KENTUCKY REGIONAL WEATHER ROUNDUP
NATIONAL WEATHER SERVICE LOUISVILLE KY
100 PM EDT WED MAY 23 2018

NOTE "FAIR" INDICATES FEW OR NO CLOUDS BELOW 12,000 FEET
WITH NO SIGNIFICANT WEATHER AND/OR OBSTRUCTIONS TO VISIBILITY.

KYZ001>023-026-027-061>063-070>075-231800-
WESTERN AND SOUTH CENTRAL KENTUCKY

CITY           SKY/WX    TMP DP  RH WIND       PRES   REMARKS
PADUCAH        FAIR      85  66  53 E7        30.12F
HENDERSON      NOT AVBL
OWENSBORO      FAIR      80  65  59 N8        30.14S
HOPKINSVILLE   FAIR      83  65  54 N8        30.12S
BOWLING GREEN  FAIR      79  71  76 VRB3      30.14S
GLASGOW        FAIR      79  69  72 CALM      30.14F
$$

KYZ024-025-028>034-038-045-046-053-231800-
NORTH CENTRAL KENTUCKY

CITY           SKY/WX    TMP DP  RH WIND       PRES   REMARKS
LOUISVILLE/SDF FAIR      82  62  50 N10       30.13S
LOUISVILLE/LOU FAIR      81  64  56 NW8       30.14S
FORT KNOX      FAIR      80  63  55 N6        30.14S
$$

KYZ035>037-039>044-047>052-055>060-089>105-231800-
NORTHEAST KENTUCKY

CITY           SKY/WX    TMP DP  RH WIND       PRES   REMARKS
LEXINGTON      FAIR      79  64  60 VRB3      30.14F
COVINGTON      FAIR      76  59  55 NW8       30.16S
FRANKFORT      FAIR      81  63  54 NE5       30.13F
$$

KYZ054-064>069-076>088-106>120-231800-
SOUTHEAST KENTUCKY

CITY           SKY/WX    TMP DP  RH WIND       PRES   REMARKS
JACKSON        FAIR      79  66  64 VRB3      30.15S
LONDON         FAIR      76  67  73 CALM      30.15F
SOMERSET       FAIR      77  68  73 MISG      30.16S
MIDDLESBORO    FAIR      80  68  66 CALM      30.14S
MONTICELLO     PTSUNNY   79  69  71 N10       30.16S
$$




USA.gov is the U.S. government's official web portal to all federal, state and local government web resources and services.